�N����,����,�~����,�C��,���x,�C��,����,���ϕ���,�ő�u�ԕ���,�ő厞����,���˗�,�I�_���x,�n�����x,�ő啗���N��,DTYPE
"21/11/14","00:10",0.0,9.2,87.2,1015.9,292.0,1.3,1.8,303.2,0.00,7.2,13.4,"00:06:40",1
"21/11/14","00:20",0.0,9.2,87.3,1015.9,292.3,1.3,1.7,306.5,0.00,7.2,13.3,"00:10:02",1
"21/11/14","00:30",0.0,9.1,87.4,1015.6,302.0,1.3,1.9,321.2,0.00,7.2,13.0,"00:22:00",1
"21/11/14","00:40",0.0,8.7,87.5,1015.6,302.5,1.3,1.9,317.6,0.00,6.8,13.2,"00:33:04",1
"21/11/14","00:50",0.0,8.3,87.7,1015.4,288.0,1.3,1.6,281.6,0.00,6.4,13.1,"00:47:36",1
"21/11/14","01:00",0.0,8.2,88.0,1015.4,283.3,1.5,1.8,282.2,0.00,6.4,13.3,"00:58:48",1
"21/11/14","01:10",0.0,8.2,88.3,1015.4,313.8,1.6,2.4,324.9,0.00,6.4,13.3,"01:00:02",1
"21/11/14","01:20",0.0,8.3,88.5,1015.4,313.3,1.7,2.6,319.1,0.00,6.6,13.2,"01:15:12",1
"21/11/14","01:30",0.0,8.3,88.8,1015.4,303.4,1.5,2.0,312.2,0.00,6.6,13.1,"01:29:44",1
"21/11/14","01:40",0.0,8.1,88.9,1015.2,294.3,1.5,2.1,308.2,0.00,6.4,13.1,"01:30:48",1
"21/11/14","01:50",0.0,8.0,89.2,1015.2,280.9,1.6,1.9,269.7,0.00,6.4,13.2,"01:45:52",1
"21/11/14","02:00",0.0,8.1,89.5,1015.2,287.7,1.6,2.1,312.0,0.00,6.5,13.2,"01:59:52",1
"21/11/14","02:10",0.0,8.1,89.9,1015.2,305.1,1.7,2.7,309.3,0.00,6.6,13.0,"02:09:44",1
"21/11/14","02:20",0.0,8.0,90.3,1015.2,310.6,1.7,2.5,307.1,0.00,6.6,13.2,"02:11:04",1
"21/11/14","02:30",0.0,8.0,90.5,1014.9,292.1,1.0,1.3,273.6,0.00,6.6,12.9,"02:23:44",1
"21/11/14","02:40",0.0,8.0,90.7,1015.2,303.8,1.5,2.7,307.8,0.00,6.6,13.0,"02:39:52",1
"21/11/14","02:50",0.0,7.8,90.9,1015.2,311.2,2.0,2.6,320.7,0.00,6.4,13.2,"02:41:52",1
"21/11/14","03:00",0.0,7.7,91.2,1014.9,302.1,1.5,2.0,313.4,0.00,6.4,13.0,"02:54:24",1
"21/11/14","03:10",0.0,7.6,91.4,1014.7,307.2,1.8,2.2,309.1,0.00,6.3,13.0,"03:03:12",1
"21/11/14","03:20",0.0,7.5,91.6,1014.7,281.5,1.2,1.6,283.7,0.00,6.3,13.0,"03:18:00",1
"21/11/14","03:30",0.0,7.4,91.8,1014.9,295.8,1.0,1.8,304.8,0.00,6.2,12.6,"03:22:56",1
"21/11/14","03:40",0.0,7.3,92.0,1015.2,304.6,1.5,2.1,310.8,0.00,6.1,12.9,"03:33:20",1
"21/11/14","03:50",0.0,7.5,92.3,1015.4,316.2,2.1,2.6,319.7,0.00,6.4,13.0,"03:44:16",1
"21/11/14","04:00",0.0,7.5,92.6,1014.9,300.2,1.6,2.0,305.3,0.00,6.4,12.9,"03:50:40",1
"21/11/14","04:10",0.0,7.5,92.6,1015.2,291.6,1.3,1.6,304.2,0.00,6.4,13.0,"04:00:16",1
"21/11/14","04:20",0.0,7.4,92.8,1015.2,291.4,1.6,2.1,308.9,0.00,6.4,12.9,"04:14:08",1
"21/11/14","04:30",0.0,7.5,93.0,1015.2,289.2,1.7,2.4,317.3,0.00,6.5,12.8,"04:27:36",1
"21/11/14","04:40",0.0,7.3,93.1,1015.2,292.5,1.5,1.9,300.5,0.00,6.3,12.8,"04:36:56",1
"21/11/14","04:50",0.0,7.3,93.4,1015.2,287.9,1.3,1.6,284.8,0.00,6.3,13.0,"04:44:24",1
"21/11/14","05:00",0.0,7.5,93.6,1015.6,298.7,1.7,2.2,319.3,0.00,6.6,12.8,"04:54:08",1
"21/11/14","05:10",0.0,7.7,93.6,1014.9,308.7,1.7,2.7,320.1,0.00,6.8,12.9,"05:05:20",1
"21/11/14","05:20",0.0,7.5,93.6,1014.9,282.4,1.0,1.6,306.2,0.00,6.6,12.6,"05:11:20",1
"21/11/14","05:30",0.0,7.5,93.9,1014.9,313.9,1.7,2.1,314.3,0.00,6.6,12.8,"05:24:32",1
"21/11/14","05:40",0.0,7.5,94.0,1015.4,303.9,2.0,2.6,311.6,0.00,6.6,12.9,"05:34:08",1
"21/11/14","05:50",0.0,7.5,94.2,1015.4,291.0,1.6,1.9,284.6,0.00,6.7,12.6,"05:47:28",1
"21/11/14","06:00",0.0,7.4,94.2,1015.4,299.5,1.5,2.1,316.1,0.00,6.6,12.8,"05:58:08",1
"21/11/14","06:10",0.0,7.2,94.3,1015.4,301.7,1.6,2.0,312.3,0.00,6.4,12.8,"06:01:36",1
"21/11/14","06:20",0.0,6.8,94.4,1015.2,304.9,1.7,2.1,315.4,0.00,6.0,12.8,"06:17:28",1
"21/11/14","06:30",0.0,6.4,94.6,1015.4,296.3,1.3,2.0,318.8,0.00,5.6,12.7,"06:20:02",1
"21/11/14","06:40",0.0,6.4,94.9,1015.4,307.4,1.5,2.4,319.3,0.00,5.7,12.7,"06:32:40",1
"21/11/14","06:50",0.0,6.3,94.9,1014.9,289.6,1.1,1.3,274.6,0.00,5.6,12.5,"06:45:12",1
"21/11/14","07:00",0.0,6.3,95.1,1015.4,281.2,1.2,1.6,266.3,0.00,5.6,12.6,"06:55:52",1
"21/11/14","07:10",0.0,6.5,95.3,1015.6,309.5,1.7,2.5,323.1,0.00,5.8,12.8,"07:06:08",1
"21/11/14","07:20",0.0,6.7,95.3,1015.9,307.5,1.8,2.4,312.3,0.00,6.0,12.7,"07:13:44",1
"21/11/14","07:30",0.0,6.9,95.4,1016.1,287.9,1.5,1.9,320.3,0.00,6.3,12.6,"07:20:48",1
"21/11/14","07:40",0.0,7.3,95.4,1015.9,302.5,1.1,1.7,305.8,0.01,6.7,12.8,"07:35:12",1
"21/11/14","07:50",0.0,7.8,95.4,1016.1,275.2,1.0,1.4,267.8,0.02,7.2,12.7,"07:48:56",1
"21/11/14","08:00",0.0,8.2,95.4,1016.6,290.3,1.3,1.9,316.3,0.03,7.5,12.4,"07:59:04",1
"21/11/14","08:10",0.0,8.6,95.4,1016.6,298.5,1.2,2.0,312.8,0.05,7.9,12.4,"08:00:08",1
"21/11/14","08:20",0.0,9.2,95.4,1016.4,290.5,0.8,1.6,315.7,0.07,8.5,12.5,"08:17:52",1
"21/11/14","08:30",0.0,9.6,95.2,1016.8,225.0,0.3,0.6,280.4,0.07,8.9,12.5,"08:23:04",1
"21/11/14","08:40",0.0,9.8,95.2,1016.8,269.5,0.6,1.1,299.5,0.04,9.1,12.6,"08:36:32",1
"21/11/14","08:50",0.0,10.0,95.1,1016.8,285.2,0.5,1.0,293.8,0.05,9.3,12.6,"08:46:56",1
"21/11/14","09:00",0.0,10.4,95.1,1016.6,270.7,0.8,1.3,274.5,0.07,9.7,12.5,"08:52:48",1
"21/11/14","09:10",0.0,10.4,94.6,1016.8,268.9,0.6,0.9,254.5,0.06,9.6,12.5,"09:04:00",1
"21/11/14","09:20",0.0,10.8,94.5,1017.1,287.5,0.6,1.1,259.2,0.06,10.0,12.5,"09:10:24",1
"21/11/14","09:30",0.0,11.1,94.7,1016.8,293.1,0.8,1.3,317.7,0.09,10.3,12.5,"09:23:44",1
"21/11/14","09:40",0.0,11.1,94.6,1016.8,278.5,0.8,1.6,259.4,0.13,10.3,12.6,"09:37:28",1
"21/11/14","09:50",0.0,11.0,94.2,1016.8,296.5,1.0,1.6,303.9,0.13,10.1,12.7,"09:46:16",1
"21/11/14","10:00",0.0,11.9,92.7,1016.8,254.6,1.0,1.9,269.7,0.34,10.8,12.8,"09:53:52",1
"21/11/14","10:10",0.0,11.8,92.1,1017.1,257.6,1.0,1.7,253.5,0.13,10.6,12.8,"10:00:56",1
"21/11/14","10:20",0.0,12.2,90.5,1016.8,246.6,0.5,1.0,260.7,0.17,10.7,12.7,"10:18:48",1
"21/11/14","10:30",0.0,13.4,88.3,1017.1,201.4,0.6,1.6,211.1,0.41,11.5,12.8,"10:23:28",1
"21/11/14","10:40",0.0,13.5,82.8,1017.1,183.5,0.7,1.8,226.4,0.26,10.7,12.9,"10:30:02",1
"21/11/14","10:50",0.0,14.0,76.4,1016.6,147.2,0.8,1.9,119.4,0.26,10.0,13.0,"10:43:04",1
"21/11/14","11:00",0.0,14.4,72.4,1016.1,208.8,0.7,1.8,142.1,0.26,9.5,13.0,"10:56:16",1
"21/11/14","11:10",0.0,14.3,70.2,1016.4,201.2,0.6,1.8,130.3,0.20,9.0,13.0,"11:03:20",1
"21/11/14","11:20",0.0,14.3,69.2,1016.4,175.2,0.7,1.9,116.3,0.21,8.8,13.2,"11:17:52",1
"21/11/14","11:30",0.0,14.5,69.0,1015.9,136.4,0.7,1.6,88.2,0.24,8.9,13.2,"11:24:56",1
"21/11/14","11:40",0.0,14.7,68.7,1015.6,219.5,0.6,1.6,203.1,0.22,9.1,13.1,"11:37:04",1
"21/11/14","11:50",0.0,14.8,68.6,1014.9,227.7,1.2,2.1,234.3,0.32,9.1,13.4,"11:47:20",1
"21/11/14","12:00",0.0,15.6,66.7,1014.9,236.3,1.0,1.9,237.0,0.45,9.5,13.3,"11:53:20",1
"21/11/14","12:10",0.0,15.9,65.6,1014.7,261.1,1.3,2.9,203.8,0.44,9.5,13.4,"12:04:00",1
"21/11/14","12:20",0.0,16.7,64.4,1014.5,223.3,0.8,1.8,244.3,0.44,10.0,13.5,"12:19:52",1
"21/11/14","12:30",0.0,16.9,62.6,1013.8,192.8,1.0,2.6,235.6,0.45,9.8,13.5,"12:28:48",1
"21/11/14","12:40",0.0,17.6,62.5,1013.5,199.6,0.8,2.4,144.6,0.49,10.4,13.6,"12:33:52",1
"21/11/14","12:50",0.0,16.6,62.6,1013.8,212.0,1.3,3.2,242.6,0.18,9.5,13.8,"12:45:52",1
"21/11/14","13:00",0.0,16.7,64.3,1013.8,219.0,1.0,2.4,220.5,0.26,10.0,13.9,"12:51:52",1
"21/11/14","13:10",0.0,16.5,64.5,1013.8,198.0,1.1,2.5,215.2,0.19,9.8,13.8,"13:08:08",1
"21/11/14","13:20",0.0,16.2,65.8,1013.5,210.7,2.0,3.9,226.8,0.19,9.8,14.0,"13:16:56",1
"21/11/14","13:30",0.0,16.0,66.0,1013.8,196.4,1.2,2.6,203.2,0.14,9.7,13.9,"13:25:12",1
"21/11/14","13:40",0.0,16.2,66.3,1013.5,198.7,1.1,2.9,210.1,0.16,10.0,14.2,"13:30:08",1
"21/11/14","13:50",0.0,16.3,65.2,1013.3,202.1,1.2,2.7,229.6,0.14,9.8,14.2,"13:48:32",1
"21/11/14","14:00",0.0,16.3,65.6,1013.3,206.4,0.8,2.4,248.9,0.14,9.9,14.2,"13:59:12",1
"21/11/14","14:10",0.0,16.6,65.5,1013.5,212.7,0.5,1.4,228.2,0.16,10.2,14.1,"14:05:20",1
"21/11/14","14:20",0.0,16.8,65.0,1013.3,246.4,0.6,1.8,249.6,0.12,10.2,14.3,"14:11:28",1
"21/11/14","14:30",0.0,17.2,65.1,1013.3,220.7,0.8,2.0,188.2,0.20,10.6,14.0,"14:23:28",1
"21/11/14","14:40",0.0,16.9,63.3,1013.3,237.6,1.1,2.4,243.8,0.10,9.9,14.3,"14:30:48",1
"21/11/14","14:50",0.0,16.8,63.8,1013.5,264.0,0.8,2.5,290.2,0.07,10.0,14.5,"14:46:56",1
"21/11/14","15:00",0.0,16.4,65.8,1013.3,239.4,0.7,2.2,219.1,0.03,10.0,14.5,"14:52:32",1
"21/11/14","15:10",0.0,16.4,66.0,1013.3,222.2,1.0,2.5,234.2,0.07,10.1,14.4,"15:08:40",1
"21/11/14","15:20",0.0,16.4,66.1,1013.0,228.5,1.0,1.9,241.8,0.07,10.1,14.5,"15:13:12",1
"21/11/14","15:30",0.0,16.2,67.1,1013.0,196.5,0.8,1.7,169.1,0.04,10.1,14.7,"15:24:32",1
"21/11/14","15:40",0.0,16.1,67.9,1013.3,233.3,0.8,1.9,227.1,0.04,10.2,14.4,"15:38:00",1
"21/11/14","15:50",0.0,16.1,67.8,1013.5,220.7,0.7,1.7,135.8,0.03,10.2,14.5,"15:49:36",1
"21/11/14","16:00",0.0,16.5,67.6,1013.5,231.4,1.0,2.2,210.8,0.07,10.5,14.6,"15:54:08",1
"21/11/14","16:10",0.0,16.9,66.1,1013.3,211.5,0.8,1.9,220.4,0.07,10.6,14.7,"16:02:32",1
"21/11/14","16:20",0.0,16.7,65.9,1013.3,215.2,0.8,2.2,245.9,0.04,10.3,14.4,"16:12:24",1
"21/11/14","16:30",0.0,16.3,67.3,1013.5,216.7,0.6,1.7,230.9,0.02,10.3,14.7,"16:27:04",1
"21/11/14","16:40",0.0,15.9,68.4,1013.5,245.2,1.3,2.0,234.3,0.01,10.1,14.7,"16:37:28",1
"21/11/14","16:50",0.0,15.2,69.8,1013.5,286.1,1.1,2.0,240.0,0.00,9.8,14.6,"16:40:32",1
"21/11/14","17:00",0.0,14.6,71.7,1013.8,328.5,1.1,1.6,342.6,0.00,9.6,14.6,"16:50:32",1
"21/11/14","17:10",0.0,14.0,73.6,1013.3,302.0,1.1,1.7,322.2,0.00,9.4,14.7,"17:05:54",1
"21/11/14","17:20",0.0,13.2,74.8,1013.5,299.0,0.8,1.3,328.1,0.00,8.9,14.7,"17:19:52",1
"21/11/14","17:30",0.0,12.8,76.5,1013.5,304.1,1.5,1.9,306.5,0.00,8.8,14.8,"17:20:08",1
"21/11/14","17:40",0.0,12.4,78.7,1013.8,282.4,1.3,1.6,268.7,0.00,8.8,14.5,"17:30:28",1
"21/11/14","17:50",0.0,12.1,80.6,1013.8,288.7,1.5,2.6,310.7,0.00,8.9,14.7,"17:46:22",1
"21/11/14","18:00",0.0,11.8,81.8,1013.8,293.9,1.3,1.8,286.5,0.00,8.8,14.4,"17:54:22",1
"21/11/14","18:10",0.0,11.5,83.0,1013.8,298.1,1.5,2.9,330.2,0.00,8.8,14.6,"18:09:22",1
"21/11/14","18:20",0.0,11.3,83.8,1014.0,293.8,1.6,2.1,322.1,0.00,8.7,14.7,"18:11:38",1
"21/11/14","18:30",0.0,11.3,84.9,1013.8,316.4,2.1,2.9,309.5,0.00,8.9,14.4,"18:27:06",1
"21/11/14","18:40",0.0,11.2,85.5,1014.0,317.7,2.2,3.3,340.2,0.00,8.9,14.6,"18:30:32",1
"21/11/14","18:50",0.0,11.0,86.0,1014.2,293.1,1.5,2.4,318.5,0.00,8.8,14.5,"18:41:28",1
"21/11/14","19:00",0.0,11.0,86.4,1013.8,286.1,1.7,2.6,325.6,0.00,8.9,14.4,"18:58:24",1
"21/11/14","19:10",0.0,10.6,86.8,1014.5,283.6,1.3,2.0,316.0,0.00,8.5,14.3,"19:08:56",1
"21/11/14","19:20",0.0,10.4,87.0,1014.2,307.2,1.3,2.2,257.2,0.00,8.4,14.5,"19:10:08",1
"21/11/14","19:30",0.0,9.8,87.3,1014.5,313.0,1.7,2.1,323.2,0.00,7.8,14.2,"19:23:36",1
"21/11/14","19:40",0.0,9.4,87.8,1014.2,317.3,1.8,2.4,325.9,0.00,7.5,14.3,"19:35:52",1
"21/11/14","19:50",0.0,9.2,88.3,1014.2,314.0,1.3,2.0,324.8,0.00,7.4,14.2,"19:44:16",1
"21/11/14","20:00",0.0,9.0,88.6,1014.5,296.8,1.2,1.7,309.7,0.00,7.3,14.2,"19:57:44",1
"21/11/14","20:10",0.0,9.4,89.2,1014.5,320.0,2.0,2.9,344.3,0.00,7.8,14.1,"20:07:28",1
"21/11/14","20:20",0.0,9.7,89.7,1014.5,311.5,2.1,4.0,301.4,0.00,8.1,14.1,"20:15:44",1
"21/11/14","20:30",0.0,9.8,89.7,1014.2,286.0,2.0,3.3,317.3,0.00,8.2,14.2,"20:23:20",1
"21/11/14","20:40",0.0,9.5,90.1,1014.0,295.3,1.6,2.4,300.7,0.00,8.0,14.0,"20:34:56",1
"21/11/14","20:50",0.0,9.1,90.4,1014.9,290.8,1.3,2.0,307.5,0.00,7.7,14.1,"20:49:04",1
"21/11/14","21:00",0.0,8.8,90.7,1014.7,305.9,1.2,2.0,325.5,0.00,7.4,13.9,"20:50:02",1
"21/11/14","21:10",0.0,8.6,90.8,1014.7,308.7,1.8,2.9,322.2,0.00,7.2,14.0,"21:00:08",1
"21/11/14","21:20",0.0,8.3,91.1,1014.9,306.5,1.6,2.2,318.2,0.00,7.0,13.7,"21:10:08",1
"21/11/14","21:30",0.0,7.9,91.4,1014.5,297.9,1.2,2.1,313.7,0.00,6.6,14.0,"21:26:08",1
"21/11/14","21:40",0.0,7.6,91.6,1014.5,287.8,1.3,1.9,313.7,0.00,6.4,13.7,"21:34:16",1
"21/11/14","21:50",0.0,7.4,91.9,1014.2,288.8,1.0,2.0,306.1,0.00,6.2,13.8,"21:49:52",1
"21/11/14","22:00",0.0,7.5,92.2,1014.7,313.4,1.7,2.4,322.7,0.00,6.4,13.8,"21:58:32",1
"21/11/14","22:10",0.0,7.2,92.3,1014.5,294.5,1.6,2.7,323.3,0.00,6.1,13.7,"22:03:28",1
"21/11/14","22:20",0.0,6.9,92.5,1014.7,294.0,1.1,2.0,312.1,0.00,5.8,13.6,"22:16:56",1
"21/11/14","22:30",0.0,6.8,92.8,1014.7,305.6,1.6,1.9,311.5,0.00,5.8,13.6,"22:22:00",1
"21/11/14","22:40",0.0,7.0,93.2,1014.7,312.3,2.0,2.5,324.7,0.00,6.0,13.4,"22:38:24",1
"21/11/14","22:50",0.0,7.1,93.2,1014.9,289.4,1.7,2.5,322.2,0.00,6.1,13.5,"22:41:52",1
"21/11/14","23:00",0.0,7.0,93.3,1014.7,294.6,1.3,2.1,316.3,0.00,6.0,13.3,"22:53:12",1
"21/11/14","23:10",0.0,6.8,93.5,1014.5,296.3,1.0,1.9,321.3,0.00,5.9,13.4,"23:09:00",1
"21/11/14","23:20",0.0,6.7,93.7,1014.5,303.0,0.8,1.6,305.7,0.00,5.8,13.3,"23:18:40",1
"21/11/14","23:30",0.0,6.8,93.9,1014.7,311.7,1.8,2.5,330.6,0.00,5.9,13.4,"23:25:04",1
"21/11/14","23:40",0.0,6.8,94.2,1014.7,294.9,1.3,2.1,303.1,0.00,6.0,13.2,"23:36:56",1
"21/11/14","23:50",0.0,7.1,94.4,1014.7,298.1,1.8,2.8,315.4,0.00,6.3,13.3,"23:46:08",1
"21/11/14","24:00",0.0,7.1,94.4,1014.7,281.2,1.1,1.8,262.5,0.00,6.3,13.2,"23:50:08",1
